Regional Weather Roundup
Issued by NWS New Orleans/Baton Rouge, LA

Home | Current Version | Previous Version | Text Only | Print | Product List | Glossary On
Versions: 1 2 3 4 5 6 7 8 9 10 11 12 13 14 15 16 17 18 19 20 21 22 23 24 25 26 27 28 29 30 31 32 33 34 35 36 37 38 39 40 41 42 43 44 45 46 47 48 49 50
000
ASUS44 KLIX 211813
RWRLIX
NEW ORLEANS REGIONAL WEATHER ROUNDUP
NATIONAL WEATHER SERVICE NEW ORLEANS LA
100 PM CDT THU SEP 21 2017

NOTE: "FAIR" INDICATES FEW OR NO CLOUDS BELOW 12,000 FEET WITH NO
      SIGNIFICANT WEATHER AND/OR OBSTRUCTIONS TO VISIBILITY.
      SKY/WX - SKY CONDITION AND SIGNIFICANT WEATHER.
      TMP - AIR TEMPERATURE.     DP    - DEWPOINT TEMPERATURE.
      RH  - RELATIVE HUMIDITY.   PRES  - PRESSURE.
      HI  - HEAT INDEX.          WCI   - WIND CHILL INDEX.

*  THESE STATIONS ARE NOT NWS OR FAA STATIONS AND ARE NOT UNDER
   NWS QUALITY CONTROL.

LAZ038-040-048-061>063-065>067-069-211900-
SOUTHEAST LOUISIANA

CITY           SKY/WX    TMP DP  RH WIND       PRES   REMARKS
N.O. INTL ARPT MOSUNNY   88  72  58 N8        30.02F
6HR MIN TEMP:  72; 6HR MAX TEMP:  88;

N.O. LAKEFRONT SUNNY     86  76  71 NW6       30.02F HX  96
6HR MIN TEMP:  79; 6HR MAX TEMP:  88;

N.O. DOWNTOWN* MOCLDY    86  72  62 NE7       30.02F
6HR MIN TEMP:  79; 6HR MAX TEMP:  87;

RESERVE*       MOCLDY    90  73  56 NE6       30.02F HX  97
6HR MIN TEMP:  73; 6HR MAX TEMP:  91;

SLIDELL        MOSUNNY   88  71  57 CALM      30.01F
6HR MIN TEMP:  71; 6HR MAX TEMP:  89;

BATON ROUGE    PTSUNNY   87  70  56 NE7       30.02F
6HR MIN TEMP:  69; 6HR MAX TEMP:  89;

BOOTHVILLE     SUNNY     87  76  69 NE8       30.03F HX  97
6HR MIN TEMP:  77; 6HR MAX TEMP:  88;

BELLE CHASSE   PTSUNNY   88  71  57 NE6       30.01F
6HR MIN TEMP:  72; 6HR MAX TEMP:  88;

BOGALUSA*        N/A     89  70  54 N5        30.04F
6HR MIN TEMP:  72; 6HR MAX TEMP:  91;

GALLIANO*      PTCLDY    87  70  57 NE6       30.02F
6HR MIN TEMP:  71; 6HR MAX TEMP:  88;

NEW ROADS*     MOCLDY    85  72  65 CALM      30.03F
6HR MIN TEMP:  70; 6HR MAX TEMP:  86;

GONZALES*      MOCLDY    88  71  57 NE5       30.01F
6HR MIN TEMP:  69; 6HR MAX TEMP:  88; 6HR PCP:  0.01;

HAMMOND*       PTSUNNY   90  66  45 CALM      30.02F
HOUMA*         MOSUNNY   88  70  55 NE3       30.02F
PORT FOURCHON* MOCLDY    84  73  70 NE8       30.03F

$$

MSZ070-080>082-211900-
SOUTHERN MISSISSIPPI

CITY           SKY/WX    TMP DP  RH WIND       PRES   REMARKS
MCCOMB         MOSUNNY   87  70  56 E6        30.04F
6HR MIN TEMP:  71; 6HR MAX TEMP:  89;

GULFPORT       MOSUNNY   90  72  55 VRB6      30.00F HX  97
6HR MIN TEMP:  73; 6HR MAX TEMP:  91;

BILOXI         MOSUNNY   90  73  56 CALM      30.00F HX  98
6HR MIN TEMP:  73; 6HR MAX TEMP:  90;

PASCAGOULA     MOSUNNY   87  71  58 E7        30.01F
6HR MIN TEMP:  69; 6HR MAX TEMP:  91;


$$

COASTAL OBSERVATIONS
LAKE AND NEARSHORE STATIONS

STATION/POSITION TIME  TEMP    WIND        PRES    WAVE
                       AIR SEA DIR/SP/G            HT/PER
                 (UTC) (F)     (DEG/KT/KT) (MB)    (FT/S)
PASCAGOULA       1748   86      90/  4/  7 1016.0
WAVELAND YACHT   1736   82 84  160/  7/  8 1016.8
GRAND ISLE       1748   86 87   80/  6/  9 1016.7
SOUTHWEST PASS   1748           60/  9/ 11   N/A
NEW CANAL        1748   82 81  340/  3/  4 1016.7
SHELL BEACH      1736   82 86   10/  7/  8 1016.9

OFFSHORE STATIONS

STATION/POSITION TIME  TEMP    WIND        PRES    WAVE
                       AIR SEA DIR/SP/G            HT/PER
                 (UTC) (F)     (DEG/KT/KT) (MB)    (FT/S)
64 S DAUPHIN ISL 1750   83 85   60/  6/  8 1016.6    1/ 3

$$




USA.gov is the U.S. government's official web portal to all federal, state and local government web resources and services.